Evansville, IN

10:14 PM CDT on June 27, 2017 (GMT -0500)
Evansville Regional

Weather History for KEVV - March, 2013

Change the Weather History Date:

Thursday, March 14, 2013

  Actual Average Record
Temperature  
Mean Temperature 32 °F 45 °F  
Max Temperature 42 °F 56 °F 82 °F (2012)
Min Temperature 21 °F 35 °F 3 °F (1960)
Degree Days  
Heating Degree Days 33 20  
Month to date heating degree days 370 306  
Since 1 July heating degree days 3733 3880  
Cooling Degree Days 0 0  
Month to date cooling degree days 0 0  
Year to date cooling degree days 0 0  
Moisture  
Dew Point 23 °F    
Average Humidity 68    
Maximum Humidity 88    
Minimum Humidity 48    
Precipitation  
Precipitation T in 0.13 in 1.53 in (1922)
Month to date precipitation 0.45 1.76  
Year to date precipitation 9.98 8.03  
Snow  
Snow T in 0.10 in 3.80 in (1975)
Month to date snowfall T 0.7  
Since 1 July snowfall 12.3 11.4  
Snow Depth 0.00 in    
Sea Level Pressure  
Sea Level Pressure 30.35 in    
Wind  
Wind Speed 5 mph (South)    
Max Wind Speed 13 mph    
Max Gust Speed 16 mph    
Visibility 10 miles    
Events Rain    
T = Trace of Precipitation, MM = Missing Value Source: NWS Daily Summary

Daily Weather History Graph

Daily Weather History Graph

Search for Another Location

Airport or City:

Trip Planner

Search our weather history database for the weather conditions in past years. The results will help you decide how hot, cold, wet, or windy it might be!

Date:

Astronomy

Mar. 14, 2013 Rise Set
Actual Time 7:02 AM CDT 6:56 PM CDT
Civil Twilight 6:36 AM CDT 7:22 PM CDT
Nautical Twilight 6:05 AM CDT 7:53 PM CDT
Astronomical Twilight 5:34 AM CDT 8:24 PM CDT
Moon 8:19 AM CDT (3/14) 10:08 PM CDT (3/14)
Length of Visible Light 12h 46m
Length of Day
11h 54m
Waxing Crescent, 9% of the Moon is Illuminated
Mar 14
Waxing Crescent
Mar 19
First Quarter
Mar 27
Full
Apr 2
Last Quarter
Apr 10
New

Hourly Weather History & Observations

Time (CDT) Temp. Windchill Dew Point Humidity Pressure Visibility Wind Dir Wind Speed Gust Speed Precip Events Conditions
12:54 AM 25.0 °F - 18.0 °F 75% 30.43 in 10.0 mi Calm Calm - N/A   Clear
1:54 AM 23.0 °F - 18.0 °F 81% 30.43 in 10.0 mi Calm Calm - N/A   Clear
2:54 AM 23.0 °F - 18.0 °F 81% 30.43 in 10.0 mi Calm Calm - N/A   Clear
3:54 AM 23.0 °F - 18.0 °F 81% 30.42 in 10.0 mi Calm Calm - N/A   Clear
4:54 AM 21.9 °F - 18.0 °F 85% 30.41 in 10.0 mi Calm Calm - N/A   Clear
5:54 AM 21.0 °F - 17.1 °F 85% 30.42 in 10.0 mi Calm Calm - N/A   Clear
6:54 AM 21.0 °F - 17.1 °F 85% 30.43 in 10.0 mi Calm Calm - N/A   Clear
7:54 AM 23.0 °F - 19.9 °F 88% 30.43 in 10.0 mi Calm Calm - N/A   Clear
8:54 AM 32.0 °F 28.7 °F 25.0 °F 75% 30.43 in 10.0 mi SSW 3.5 mph - N/A   Partly Cloudy
9:54 AM 36.0 °F 31.1 °F 21.9 °F 57% 30.41 in 10.0 mi SSW 5.8 mph - N/A   Overcast
10:54 AM 36.0 °F 29.0 °F 19.0 °F 50% 30.43 in 10.0 mi SW 9.2 mph - N/A   Overcast
11:54 AM 37.9 °F 33.5 °F 19.9 °F 48% 30.41 in 10.0 mi SSW 5.8 mph - N/A   Mostly Cloudy
12:54 PM 39.9 °F 33.9 °F 21.0 °F 47% 30.38 in 10.0 mi SSW 9.2 mph - N/A   Overcast
1:54 PM 39.9 °F 33.4 °F 21.0 °F 47% 30.35 in 10.0 mi SSW 10.4 mph - N/A   Mostly Cloudy
2:54 PM 39.9 °F 33.4 °F 24.1 °F 53% 30.32 in 10.0 mi SSW 10.4 mph - N/A   Overcast
3:54 PM 39.9 °F 33.9 °F 25.0 °F 55% 30.29 in 10.0 mi SSW 9.2 mph - N/A   Overcast
4:54 PM 37.9 °F 33.5 °F 30.0 °F 73% 30.27 in 10.0 mi SW 5.8 mph - 0.00 in Rain Light Rain
5:54 PM 39.0 °F 34.0 °F 30.0 °F 70% 30.26 in 10.0 mi South 6.9 mph - 0.00 in   Scattered Clouds
6:54 PM 37.9 °F 33.5 °F 30.0 °F 73% 30.27 in 10.0 mi SE 5.8 mph - N/A   Overcast
7:54 PM 36.0 °F 32.1 °F 30.0 °F 79% 30.26 in 10.0 mi ESE 4.6 mph - N/A   Partly Cloudy
8:54 PM 36.0 °F 31.1 °F 30.0 °F 79% 30.25 in 10.0 mi SE 5.8 mph - N/A   Mostly Cloudy
9:54 PM 36.0 °F 30.3 °F 30.0 °F 79% 30.23 in 10.0 mi SSE 6.9 mph - N/A   Partly Cloudy
10:54 PM 35.1 °F 29.3 °F 30.0 °F 82% 30.21 in 10.0 mi SE 6.9 mph - N/A   Clear
11:54 PM 34.0 °F 29.8 °F 28.9 °F 82% 30.19 in 10.0 mi SE 4.6 mph - N/A   Clear